Starlink 30433

operational
NORAD ID: 57878 Int'l Des: 2023-144 Owner: SPXS Country: US Constellation: starlink
LEOCIRCULAR

Über Starlink 30433

Beschreibung wird geladen...

Live-Position

3D-Globus wird geladen...

Nächste Überflüge

Höhenverlauf

Altitude vs Time

uPlot chart will show altitude changes over time

Zweizeiliger Elementsatz

1 57878U 23144Q 26035.27117766 .00000091 00000-0 21781-4 0 9995
2 57878 43.0020 109.0600 0001131 254.3944 105.6774 15.02535072132588
Epoch: 4. Feb. 2026 • Age: 13 hours

Aktueller Status

Höhe 561.3 km
Geschwindigkeit 7.59 km/s
Subsatellitenpunkt 35.03°N, 86.66°E
Startdatum 16. Sept. 2023
Alter 2.3 years
Typ internet

Technische Details

Klassifizierung Payload
Masse 730.00 kg
Trockenmasse 700.00 kg
Gesamtmasse 730.00 kg
Länge 0.30 m
Durchmesser 4.10 m
Spannweite 29.00 m
Form Box + pan
Hersteller SPXS
Bus-Typ Starlink V2M
Phasenstatus In Orbit
Besitzer/Staat SPXS/US

Große Konstellationen

Loading constellations...